Location: Newark
(44.6028°N, 124.0883°W)
Time: 23:57:23
(UTC+00:00)

Vanguard 1 Rocket - Pass Details

Date: 31 October 2019
Orbit: 651 x 4226 km, 34.3° (Epoch: 20 November)

Event Time Altitude Azimuth Distance (km) Brightness Sun altitude
Rises 16:30:04 0° 236° (SW) 4,012 10.5 14.4°
Reaches altitude 10° 16:32:24 10° 229° (SW) 3,341 10.2 14.7°
Maximum altitude 16:40:38 46° 159° (SSE) 2,505 10.6 15.9°
Drops below altitude 10° 16:56:07 10° 94° (E) 6,114 12.6 17.9°
Sets 17:02:15 0° 90° (E) 7,645 12.8 18.7°
